When you browse on this site, cookies collect data to enhance your experience and personalize the content and advertising you see.
Visit our Privacy Policy to learn more. By continuing to use the site, you agree to this use of cookies and data.
  • Em Portugal
  • Lista de países
  • Para 7 dias
  • Temperatura da água
  • Mapas de satélite
  • Mapa do tempo
  • Widgets de tempo
  • user-avatar
    Iniciar Sessão

    Previsão horária em Primorsko

    Hoje, 25 Maio, Sábado

    Tempo Temperatura Precipitação Vento Pressão Humidade
    00:00 +16°C° 0 mm 3 m/s 756 mmHg 87%
    01:00 +16°C° 0 mm 3 m/s 756 mmHg 88%
    02:00 +14°C° 0 mm 3 m/s 756 mmHg 88%
    03:00 +14°C° 0 mm 3 m/s 757 mmHg 88%
    04:00 +14°C° 0 mm 3 m/s 757 mmHg 89%
    05:00 +14°C° 0 mm 4 m/s 757 mmHg 89%
    06:00 +17°C° 0 mm 4 m/s 757 mmHg 82%
    07:00 +18°C° 0 mm 4 m/s 757 mmHg 76%
    08:00 +20°C° 0 mm 4 m/s 758 mmHg 69%
    09:00 +21°C° 0 mm 3 m/s 758 mmHg 63%
    10:00 +24°C° 0 mm 3 m/s 758 mmHg 58%
    11:00 +25°C° 0 mm 3 m/s 758 mmHg 52%
    12:00 +25°C° 0.1 mm 2 m/s 758 mmHg 54%
    13:00 +25°C° 0.1 mm 2 m/s 758 mmHg 56%
    14:00 +26°C° 0.1 mm 2 m/s 758 mmHg 57%
    15:00 +25°C° 0.3 mm 2 m/s 758 mmHg 61%
    16:00 +25°C° 0.3 mm 2 m/s 758 mmHg 65%
    17:00 +24°C° 0.3 mm 2 m/s 757 mmHg 69%
    18:00 +23°C° 0 mm 2 m/s 758 mmHg 73%
    19:00 +21°C° 0 mm 1 m/s 758 mmHg 76%
    20:00 +19°C° 0 mm 1 m/s 758 mmHg 79%
    21:00 +19°C° 0 mm 1 m/s 758 mmHg 81%
    22:00 +18°C° 0 mm 2 m/s 759 mmHg 82%
    23:00 +17°C° 0 mm 2 m/s 759 mmHg 83%

    Amanhã, 26 Maio, Domingo

    Tempo Temperatura Precipitação Vento Pressão Humidade
    00:00 +17°C° 0 mm 2 m/s 759 mmHg 84%
    01:00 +17°C° 0 mm 2 m/s 759 mmHg 85%
    02:00 +17°C° 0 mm 2 m/s 759 mmHg 86%
    03:00 +16°C° 0 mm 2 m/s 760 mmHg 86%
    04:00 +16°C° 0 mm 2 m/s 760 mmHg 86%
    05:00 +16°C° 0 mm 2 m/s 760 mmHg 85%
    06:00 +18°C° 0 mm 2 m/s 760 mmHg 79%
    07:00 +20°C° 0 mm 2 m/s 760 mmHg 72%
    08:00 +23°C° 0 mm 2 m/s 761 mmHg 65%
    09:00 +25°C° 0 mm 1 m/s 761 mmHg 60%
    10:00 +26°C° 0 mm 1 m/s 761 mmHg 54%
    11:00 +28°C° 0 mm 1 m/s 761 mmHg 49%
    12:00 +28°C° 0 mm 1 m/s 761 mmHg 50%
    13:00 +27°C° 0 mm 2 m/s 761 mmHg 51%
    14:00 +27°C° 0 mm 3 m/s 761 mmHg 52%
    15:00 +27°C° 0 mm 3 m/s 761 mmHg 55%
    16:00 +27°C° 0 mm 3 m/s 760 mmHg 57%
    17:00 +26°C° 0 mm 4 m/s 760 mmHg 60%
    18:00 +24°C° 0 mm 3 m/s 760 mmHg 66%
    19:00 +21°C° 0 mm 3 m/s 761 mmHg 73%
    20:00 +20°C° 0 mm 3 m/s 761 mmHg 80%
    21:00 +19°C° 0 mm 2 m/s 761 mmHg 82%
    22:00 +19°C° 0 mm 2 m/s 761 mmHg 84%
    23:00 +18°C° 0 mm 2 m/s 761 mmHg 86%

    Depois de amanhã, 27 Maio, Segunda-feira

    Tempo Temperatura Precipitação Vento Pressão Humidade
    00:00 +18°C° 0 mm 2 m/s 761 mmHg 86%
    01:00 +19°C° 0 mm 1 m/s 761 mmHg 87%
    02:00 +19°C° 0 mm 1 m/s 761 mmHg 87%
    03:00 +18°C° 0 mm 1 m/s 761 mmHg 88%
    04:00 +18°C° 0 mm 1 m/s 761 mmHg 88%
    05:00 +16°C° 0 mm 0 m/s 761 mmHg 88%
    06:00 +20°C° 0 mm 1 m/s 761 mmHg 79%
    07:00 +22°C° 0 mm 1 m/s 761 mmHg 71%
    08:00 +24°C° 0 mm 1 m/s 761 mmHg 63%
    09:00 +25°C° 0 mm 2 m/s 761 mmHg 58%
    10:00 +26°C° 0 mm 3 m/s 761 mmHg 53%
    11:00 +27°C° 0 mm 3 m/s 761 mmHg 48%
    12:00 +27°C° 0 mm 4 m/s 761 mmHg 49%
    13:00 +27°C° 0 mm 4 m/s 761 mmHg 50%
    14:00 +27°C° 0 mm 4 m/s 761 mmHg 51%
    15:00 +26°C° 0 mm 4 m/s 760 mmHg 54%
    16:00 +25°C° 0 mm 4 m/s 760 mmHg 58%
    17:00 +25°C° 0 mm 4 m/s 760 mmHg 61%
    18:00 +22°C° 0 mm 3 m/s 760 mmHg 71%
    19:00 +19°C° 0 mm 3 m/s 760 mmHg 80%
    20:00 +17°C° 0 mm 2 m/s 760 mmHg 90%
    21:00 +17°C° 0 mm 2 m/s 760 mmHg 89%
    22:00 +17°C° 0 mm 2 m/s 760 mmHg 89%
    23:00 +16°C° 0 mm 1 m/s 760 mmHg 88%

    28 Maio, Terça-feira

    Tempo Temperatura Precipitação Vento Pressão Humidade
    00:00 +16°C° 0 mm 1 m/s 760 mmHg 87%
    01:00 +16°C° 0 mm 1 m/s 760 mmHg 85%
    02:00 +16°C° 0 mm 1 m/s 759 mmHg 84%
    03:00 +16°C° 0 mm 1 m/s 759 mmHg 84%
    04:00 +16°C° 0 mm 1 m/s 759 mmHg 83%
    05:00 +16°C° 0 mm 1 m/s 759 mmHg 83%
    06:00 +19°C° 0 mm 1 m/s 759 mmHg 76%
    07:00 +22°C° 0 mm 1 m/s 759 mmHg 70%
    08:00 +25°C° 0 mm 1 m/s 759 mmHg 63%
    09:00 +26°C° 0 mm 2 m/s 759 mmHg 58%
    10:00 +28°C° 0 mm 2 m/s 759 mmHg 54%
    11:00 +30°C° 0 mm 3 m/s 758 mmHg 50%
    12:00 +31°C° 0 mm 3 m/s 758 mmHg 49%
    13:00 +32°C° 0 mm 4 m/s 757 mmHg 48%
    14:00 +32°C° 0 mm 4 m/s 757 mmHg 47%
    15:00 +32°C° 0 mm 4 m/s 757 mmHg 49%
    16:00 +32°C° 0 mm 4 m/s 757 mmHg 51%
    17:00 +30°C° 0 mm 4 m/s 756 mmHg 54%
    18:00 +28°C° 0 mm 4 m/s 756 mmHg 60%
    19:00 +26°C° 0 mm 3 m/s 756 mmHg 66%
    20:00 +24°C° 0 mm 3 m/s 756 mmHg 72%
    21:00 +24°C° 0 mm 3 m/s 757 mmHg 62%
    22:00 +22°C° 0 mm 3 m/s 757 mmHg 52%
    23:00 +22°C° 0 mm 3 m/s 757 mmHg 43%

    29 Maio, Quarta-feira

    Tempo Temperatura Precipitação Vento Pressão Humidade
    00:00 +22°C° 0 mm 4 m/s 757 mmHg 46%
    01:00 +21°C° 0 mm 4 m/s 757 mmHg 48%
    02:00 +21°C° 0 mm 4 m/s 757 mmHg 51%
    03:00 +20°C° 0 mm 4 m/s 757 mmHg 56%
    04:00 +20°C° 0 mm 3 m/s 757 mmHg 61%
    05:00 +19°C° 0 mm 3 m/s 757 mmHg 66%
    06:00 +21°C° 0 mm 3 m/s 757 mmHg 63%
    07:00 +24°C° 0 mm 3 m/s 757 mmHg 61%
    08:00 +26°C° 0 mm 3 m/s 757 mmHg 58%
    09:00 +27°C° 0 mm 3 m/s 758 mmHg 53%
    10:00 +29°C° 0 mm 2 m/s 758 mmHg 48%
    11:00 +30°C° 0 mm 2 m/s 758 mmHg 43%
    12:00 +31°C° 0 mm 2 m/s 758 mmHg 43%
    13:00 +31°C° 0 mm 2 m/s 758 mmHg 42%
    14:00 +31°C° 0 mm 3 m/s 758 mmHg 41%
    15:00 +31°C° 0 mm 2 m/s 758 mmHg 44%
    16:00 +31°C° 0 mm 2 m/s 758 mmHg 47%
    17:00 +31°C° 0 mm 2 m/s 758 mmHg 50%
    18:00 +28°C° 0 mm 2 m/s 758 mmHg 56%
    19:00 +26°C° 0 mm 2 m/s 758 mmHg 62%
    20:00 +24°C° 0 mm 3 m/s 758 mmHg 69%
    21:00 +24°C° 0 mm 3 m/s 759 mmHg 69%
    22:00 +22°C° 0 mm 3 m/s 759 mmHg 69%
    23:00 +21°C° 0 mm 3 m/s 759 mmHg 69%

    30 Maio, Quinta-feira

    Tempo Temperatura Precipitação Vento Pressão Humidade
    00:00 +21°C° 0 mm 2 m/s 759 mmHg 70%
    01:00 +20°C° 0 mm 2 m/s 759 mmHg 71%
    02:00 +20°C° 0 mm 2 m/s 759 mmHg 72%
    03:00 +20°C° 0 mm 2 m/s 759 mmHg 74%
    04:00 +20°C° 0 mm 2 m/s 759 mmHg 76%
    05:00 +19°C° 0 mm 2 m/s 759 mmHg 78%
    06:00 +21°C° 0 mm 2 m/s 760 mmHg 73%
    07:00 +24°C° 0 mm 2 m/s 760 mmHg 68%
    08:00 +26°C° 0 mm 2 m/s 760 mmHg 63%
    09:00 +27°C° 0 mm 2 m/s 760 mmHg 58%
    10:00 +29°C° 0 mm 2 m/s 760 mmHg 54%
    11:00 +30°C° 0 mm 3 m/s 760 mmHg 49%
    12:00 +30°C° 0 mm 3 m/s 760 mmHg 48%
    13:00 +30°C° 0 mm 3 m/s 759 mmHg 47%
    14:00 +30°C° 0 mm 4 m/s 759 mmHg 46%
    15:00 +30°C° 0 mm 3 m/s 759 mmHg 48%
    16:00 +29°C° 0 mm 3 m/s 759 mmHg 51%
    17:00 +28°C° 0 mm 3 m/s 759 mmHg 54%
    18:00 +26°C° 0 mm 2 m/s 759 mmHg 61%
    19:00 +24°C° 0 mm 1 m/s 759 mmHg 67%
    20:00 +22°C° 0 mm 1 m/s 759 mmHg 74%
    21:00 +22°C° 0 mm 1 m/s 759 mmHg 74%
    22:00 +22°C° 0 mm 1 m/s 759 mmHg 73%
    23:00 +21°C° 0 mm 1 m/s 759 mmHg 73%
    Mostrar mais